Wind_Speed
25 26 26 27 27 27 27 27 27 28 28 28 27 27 27 27 27 27 26 26 26 27 28 27 27 26 26 26 26 26 26 26 26 25 25 25 26 26 26 26 25 25 25
26 26 27 27 27 28 28 28 28 28 29 28 27 26 26 26 27 26 26 26 27 28 27 27 27 27 27 26 25 25 25 25 26 26 25 25 26 26 26 26 26 25 26
25 26 26 27 28 28 29 29 29 30 30 29 28 27 27 27 26 26 26 26 27 27 28 26 26 26 26 26 25 25 25 25 25 26 26 26 27 27 28 28 27 27 27
26 26 27 27 28 28 29 29 29 28 28 28 28 28 27 27 27 27 27 26 26 27 26 26 26 25 25 25 25 25 25 24 25 26 27 28 28 28 28 28 28 28 28
26 26 27 27 28 28 28 28 28 28 27 27 28 27 27 27 27 27 27 26 26 26 25 24 24 25 25 25 25 25 25 25 25 26 27 27 28 29 28 28 27 28 28
27 28 28 28 28 28 28 28 28 27 27 27 27 27 27 26 26 25 25 25 25 24 23 23 23 24 25 25 25 24 25 25 26 26 27 27 28 28 28 27 27 28 28
27 27 28 28 28 28 28 28 27 27 27 27 26 26 26 26 25 25 25 25 24 24 23 22 22 22 22 22 23 23 24 25 25 25 26 26 26 27 27 27 27 27 28
27 27 28 28 29 29 29 28 27 26 26 26 26 26 26 26 25 25 25 24 23 23 22 22 22 21 21 21 22 23 24 24 24 24 24 24 24 25 26 26 27 27 28
28 28 28 29 29 29 29 28 27 27 27 27 27 26 26 25 25 24 24 22 21 21 21 21 20 19 20 21 21 22 22 22 23 23 23 23 23 24 25 25 26 28 28
28 28 28 28 28 28 28 27 28 28 27 27 26 26 25 24 24 23 22 21 20 20 19 20 19 18 19 19 20 20 21 21 22 23 23 23 23 24 24 25 27 28 28
28 28 28 28 28 28 28 27 27 26 26 26 26 26 24 23 23 22 21 20 19 19 19 19 18 18 18 19 20 21 21 21 22 23 23 24 24 24 24 25 26 27 28
28 28 28 28 28 28 27 27 26 26 26 26 25 24 22 22 21 21 20 20 20 20 19 19 19 18 18 19 20 20 21 21 22 23 24 24 24 23 23 24 26 27 28
27 28 28 28 28 27 27 27 27 25 24 23 22 21 20 19 19 19 19 19 20 19 19 19 19 18 18 18 19 19 20 21 22 23 24 24 23 23 23 24 25 26 27
28 28 28 27 27 26 26 26 26 24 23 22 21 20 20 19 18 18 18 19 19 19 19 18 18 17 17 18 18 19 19 20 20 21 22 23 23 23 24 24 24 25 25
28 27 27 26 26 26 25 24 24 23 22 21 21 20 18 18 18 18 18 19 19 18 18 17 17 17 17 17 18 18 19 18 19 19 20 21 21 22 23 22 22 23 23
27 26 25 25 25 25 24 23 23 22 22 20 19 19 18 17 17 18 18 18 18 17 16 16 16 16 16 16 16 17 17 17 17 18 18 19 19 20 21 21 21 22 22
26 25 24 25 25 24 23 23 23 22 21 19 19 18 17 17 17 17 17 17 16 16 15 14 15 15 15 15 16 15 15 16 16 17 18 19 19 19 19 19 20 20 20
25 24 24 25 25 24 24 23 22 21 20 18 17 16 16 15 15 15 15 15 15 14 13 13 13 13 14 14 14 15 15 16 17 18 18 19 19 18 18 18 18 18 18
25 24 24 24 24 24 23 22 21 20 19 18 17 15 15 14 14 14 14 13 13 13 12 12 11 12 12 12 13 14 14 15 16 17 17 17 17 17 17 17 17 17 16
24 24 24 24 23 22 21 20 20 18 18 16 15 14 14 15 14 14 13 13 12 12 11 11 11 11 11 12 12 13 14 14 15 16 16 16 16 16 16 16 16 16 16
24 24 23 22 22 21 20 19 19 17 16 16 15 14 14 14 14 14 13 12 12 11 10 10 10 10 11 11 12 12 13 15 15 15 16 15 15 16 16 16 16 16 16
24 24 22 22 21 21 20 19 17 16 15 15 14 14 13 13 13 13 12 12 11 9 9 9 10 10 11 12 12 13 13 14 14 14 14 15 16 16 16 16 16 15 15
24 23 22 21 21 20 19 18 17 16 14 14 14 13 13 12 12 12 11 10 8 8 8 9 10 11 12 12 12 13 13 13 13 13 14 15 16 16 16 16 16 16 16
24 23 22 20 20 19 18 17 16 14 14 13 13 13 13 12 11 11 10 9 8 8 8 9 10 11 11 12 12 12 12 13 13 13 14 15 16 16 16 17 17 17 17
23 22 21 20 19 18 17 16 15 14 13 13 12 12 12 11 10 10 9 9 8 8 9 10 11 11 11 12 12 12 12 12 13 14 15 15 16 16 16 17 17 18 18
21 20 20 19 19 18 17 15 14 12 12 11 11 11 10 9 9 9 9 9 10 10 10 10 10 11 12 12 12 12 12 13 14 14 15 15 16 16 16 17 18 18 18
Wind_Direction
303 305 306 306 305 304 304 303 302 301 302 300 297 294 292 292 292 289 288 286 285 284 282 282 283 284 284 283 281 278 274 271 271 272 274 273 272 270 271 270 267 263 262
307 310 309 307 306 304 303 303 301 300 301 301 301 296 295 294 293 293 290 288 286 286 283 281 282 283 283 284 283 279 276 274 273 274 275 274 272 271 271 269 267 265 263
310 310 310 308 306 305 303 301 300 300 299 299 300 299 296 297 294 292 291 289 289 288 286 283 284 283 282 283 283 279 277 276 276 276 275 274 271 270 269 268 267 265 264
310 310 310 310 308 306 303 302 302 301 300 301 300 299 298 299 296 293 293 292 290 290 289 286 285 283 282 282 282 279 276 275 275 277 276 275 271 269 268 267 267 266 266
310 310 310 310 308 307 305 303 303 303 303 302 301 299 298 298 296 295 292 289 289 288 288 287 285 284 283 282 281 278 276 276 276 277 277 276 273 272 272 267 267 268 268
309 309 309 310 309 307 306 305 304 304 304 304 301 300 299 297 297 296 293 290 289 287 286 285 286 285 284 283 282 279 277 278 278 277 278 278 275 272 270 269 268 268 268
310 309 309 309 308 308 308 306 305 305 306 305 303 302 300 299 297 296 293 291 289 287 286 285 285 285 285 287 285 280 278 278 279 280 280 278 276 273 272 271 271 270 268
310 309 308 308 307 308 309 307 307 306 306 306 305 303 302 302 299 295 293 291 289 287 285 285 285 285 285 286 285 281 279 279 280 281 282 280 277 276 273 273 273 273 271
311 311 311 311 309 308 308 309 309 308 305 305 304 303 303 303 301 299 296 295 291 287 286 288 288 288 288 287 287 284 281 279 280 281 282 282 280 277 275 274 275 275 274
313 313 313 312 312 312 311 309 307 306 306 305 306 305 305 304 304 302 299 297 292 289 291 292 290 289 290 289 290 291 287 284 284 284 284 284 282 279 275 275 276 276 275
314 313 313 313 313 312 310 309 308 306 306 305 305 306 306 306 304 300 298 297 296 293 292 293 294 293 292 290 291 291 287 286 287 287 287 285 284 282 278 278 277 278 278
314 314 314 313 312 310 308 309 309 308 308 307 306 306 307 305 304 302 299 297 296 294 295 294 296 295 293 294 294 291 288 288 290 290 289 288 286 284 283 282 280 279 278
314 314 313 313 312 311 310 310 310 309 308 308 307 307 307 306 305 303 301 298 296 295 295 296 296 295 292 293 296 293 290 290 291 290 290 289 288 287 286 286 284 282 280
315 315 314 313 313 313 313 313 311 310 308 307 307 307 306 305 305 305 303 300 297 294 294 296 297 295 293 292 295 294 294 293 293 292 291 290 290 289 287 287 285 283 281
315 315 315 315 315 315 314 313 313 312 310 307 305 304 305 305 305 303 301 303 299 294 296 298 297 294 296 296 297 297 297 296 295 296 297 297 297 293 291 288 286 285 283
316 315 315 315 315 316 314 314 314 313 311 308 308 308 303 303 303 302 301 302 302 299 298 297 295 295 298 300 302 304 304 304 304 304 304 304 302 299 296 294 291 289 286
318 317 316 317 317 317 317 317 316 314 314 309 307 310 309 307 305 303 304 304 305 304 302 299 297 297 298 299 303 306 307 310 311 310 307 307 308 306 302 300 298 293 289
320 318 317 317 317 317 318 319 318 317 316 314 311 311 312 312 312 312 309 309 308 307 309 306 303 303 303 301 304 307 308 312 312 310 310 312 313 313 307 304 302 299 295
319 319 318 318 319 319 319 319 320 319 318 317 314 312 313 313 315 316 315 314 314 314 315 310 309 310 309 308 308 309 310 312 314 314 315 317 318 318 313 309 308 306 302
319 320 320 320 321 322 321 321 322 323 324 323 319 315 313 314 313 318 319 317 317 316 316 314 313 314 312 312 310 313 314 316 318 319 320 321 322 324 324 320 317 315 309
319 320 321 322 324 327 326 325 325 328 329 326 323 322 319 317 314 317 317 319 318 315 314 314 316 317 317 317 315 317 317 318 321 323 325 326 327 327 328 326 323 319 314
318 320 321 321 322 324 325 326 328 328 329 330 330 330 328 324 321 321 320 319 319 318 315 317 321 323 323 322 322 323 324 324 325 328 330 332 331 331 330 328 327 325 322
316 319 319 319 320 323 324 327 329 329 329 331 331 332 330 326 324 323 324 323 320 320 318 321 327 328 326 327 329 329 330 329 329 329 330 331 331 332 334 333 331 328 326
313 315 317 318 319 322 323 326 328 328 330 330 329 330 331 327 326 328 327 324 323 326 329 328 330 332 333 333 334 331 329 332 330 330 331 331 332 333 334 334 333 331 330
312 311 312 314 317 321 322 323 324 325 326 329 333 333 333 334 332 332 333 334 331 330 332 330 329 331 332 333 333 331 331 332 331 330 332 333 334 333 333 334 335 334 332
312 313 311 311 313 317 319 317 319 321 323 326 333 334 333 334 337 336 334 336 335 331 330 328 329 331 332 332 333 334 332 331 330 329 331 332 332 331 330 332 334 333 331
Height
5848 5844 5841 5837 5834 5830 5827 5824 5821 5818 5815 5812 5809 5807 5804 5802 5800 5798 5797 5796 5794 5792 5790 5789 5787 5786 5784 5783 5781 5781 5780 5780 5780 5779 5779 5778 5778 5778 5778 5778 5778 5778 5778
5842 5839 5835 5832 5828 5825 5821 5818 5815 5812 5809 5806 5803 5801 5798 5796 5794 5792 5790 5788 5787 5785 5783 5782 5780 5779 5778 5776 5775 5774 5773 5773 5773 5773 5772 5772 5772 5771 5771 5771 5771 5771 5771
5837 5834 5830 5826 5822 5819 5815 5812 5809 5806 5803 5800 5797 5794 5792 5790 5787 5785 5783 5781 5780 5778 5776 5775 5773 5772 5771 5769 5768 5767 5766 5766 5766 5766 5765 5765 5765 5764 5764 5764 5764 5764 5764
5832 5828 5825 5821 5817 5813 5809 5806 5802 5799 5796 5793 5790 5788 5786 5783 5781 5779 5777 5774 5773 5771 5770 5768 5767 5765 5764 5763 5762 5761 5760 5760 5759 5759 5758 5758 5757 5757 5757 5757 5756 5756 5756
5827 5823 5819 5815 5811 5807 5803 5799 5796 5793 5790 5787 5784 5782 5779 5777 5774 5772 5770 5768 5766 5764 5763 5761 5760 5759 5757 5756 5755 5754 5754 5753 5753 5752 5751 5750 5748 5748 5748 5749 5749 5748 5748
5821 5817 5813 5809 5805 5801 5797 5793 5789 5786 5783 5780 5777 5775 5773 5770 5768 5765 5763 5761 5759 5758 5756 5755 5754 5752 5751 5750 5749 5748 5747 5746 5745 5744 5743 5742 5741 5741 5741 5741 5741 5741 5741
5815 5811 5807 5803 5799 5795 5791 5786 5782 5779 5776 5773 5771 5768 5766 5763 5761 5759 5756 5754 5753 5751 5750 5748 5747 5745 5744 5743 5742 5741 5740 5739 5738 5737 5736 5734 5734 5733 5733 5733 5733 5733 5733
5810 5805 5801 5797 5793 5789 5784 5780 5776 5773 5770 5767 5764 5762 5759 5756 5754 5752 5749 5747 5746 5744 5743 5742 5741 5739 5738 5737 5735 5734 5733 5732 5731 5730 5729 5727 5726 5725 5725 5725 5725 5725 5725
5804 5800 5795 5791 5787 5783 5778 5774 5770 5767 5764 5761 5758 5755 5752 5750 5747 5745 5743 5740 5739 5738 5737 5736 5735 5733 5732 5731 5729 5728 5727 5726 5725 5724 5722 5720 5719 5718 5718 5717 5717 5717 5716
5798 5794 5790 5785 5781 5777 5773 5769 5765 5761 5757 5754 5751 5749 5746 5743 5741 5739 5737 5735 5733 5732 5731 5731 5729 5727 5726 5725 5723 5722 5721 5720 5718 5717 5716 5714 5713 5711 5711 5710 5709 5708 5707
5793 5788 5784 5780 5775 5771 5767 5763 5759 5755 5751 5748 5745 5742 5740 5738 5736 5733 5732 5730 5729 5727 5726 5725 5723 5722 5721 5719 5718 5716 5715 5714 5712 5710 5709 5707 5706 5704 5703 5702 5701 5700 5699
5787 5783 5779 5774 5770 5766 5761 5757 5753 5749 5745 5742 5739 5737 5734 5732 5730 5728 5727 5725 5724 5722 5721 5719 5718 5716 5715 5714 5712 5710 5709 5707 5706 5704 5702 5700 5699 5698 5696 5694 5693 5692 5690
5782 5778 5773 5769 5764 5760 5756 5751 5747 5743 5740 5737 5734 5732 5729 5727 5725 5723 5722 5720 5719 5717 5716 5714 5712 5711 5709 5708 5707 5705 5703 5701 5699 5697 5695 5693 5691 5690 5688 5687 5685 5683 5681
5776 5772 5768 5763 5759 5755 5751 5746 5742 5738 5735 5732 5729 5727 5725 5723 5721 5719 5717 5715 5714 5712 5711 5709 5707 5706 5704 5703 5701 5699 5697 5695 5693 5691 5689 5686 5684 5683 5681 5679 5677 5675 5674
5771 5766 5762 5758 5754 5750 5745 5741 5737 5733 5729 5726 5724 5722 5720 5718 5716 5714 5713 5711 5708 5707 5706 5704 5702 5701 5699 5698 5696 5694 5692 5689 5687 5685 5683 5680 5678 5675 5673 5671 5670 5668 5666
5765 5761 5757 5753 5748 5745 5741 5736 5733 5729 5725 5722 5720 5717 5715 5713 5712 5710 5708 5706 5704 5702 5700 5699 5697 5696 5694 5693 5691 5689 5687 5685 5682 5680 5677 5675 5672 5669 5666 5664 5662 5661 5659
5760 5756 5752 5747 5743 5739 5735 5732 5727 5724 5720 5717 5715 5712 5710 5709 5707 5705 5703 5702 5699 5697 5696 5694 5693 5691 5690 5689 5687 5685 5683 5680 5678 5675 5673 5670 5666 5663 5660 5658 5655 5654 5652
5755 5751 5747 5743 5739 5735 5731 5727 5723 5719 5716 5713 5710 5708 5706 5705 5703 5701 5699 5698 5695 5693 5692 5690 5688 5687 5686 5684 5683 5681 5678 5676 5674 5671 5668 5665 5661 5658 5655 5652 5650 5648 5646
5751 5747 5742 5738 5734 5730 5726 5722 5718 5715 5711 5709 5707 5705 5703 5701 5700 5698 5696 5694 5692 5690 5688 5686 5685 5683 5682 5680 5678 5677 5674 5672 5670 5667 5664 5661 5657 5654 5651 5648 5645 5643 5641
5746 5742 5738 5733 5729 5725 5721 5717 5714 5710 5708 5705 5703 5701 5699 5698 5696 5694 5692 5690 5688 5687 5685 5683 5682 5680 5679 5677 5675 5673 5671 5669 5666 5663 5660 5657 5653 5650 5647 5644 5641 5639 5637
5742 5738 5734 5729 5725 5721 5717 5714 5711 5708 5705 5702 5700 5698 5696 5695 5693 5691 5689 5687 5685 5684 5682 5681 5679 5677 5676 5674 5672 5670 5668 5665 5662 5659 5656 5653 5650 5647 5644 5640 5637 5635 5632
5738 5734 5730 5726 5722 5718 5715 5711 5708 5705 5703 5700 5698 5696 5694 5692 5690 5688 5686 5685 5683 5681 5680 5678 5677 5675 5673 5671 5669 5667 5664 5661 5659 5656 5653 5650 5647 5644 5640 5637 5634 5631 5628
5734 5730 5726 5722 5718 5715 5712 5709 5706 5703 5700 5698 5696 5694 5692 5690 5688 5686 5684 5682 5681 5679 5678 5676 5675 5673 5671 5668 5666 5664 5661 5658 5656 5653 5650 5647 5644 5641 5638 5634 5631 5628 5625
5729 5725 5722 5718 5715 5712 5709 5706 5703 5701 5698 5696 5694 5692 5690 5688 5686 5684 5683 5681 5679 5678 5676 5674 5673 5670 5668 5666 5663 5661 5658 5656 5653 5650 5647 5644 5641 5638 5634 5631 5628 5624 5620
5724 5721 5718 5715 5712 5709 5706 5703 5701 5698 5696 5694 5692 5690 5688 5686 5685 5683 5681 5680 5678 5676 5674 5672 5670 5668 5666 5664 5661 5658 5656 5653 5650 5647 5644 5641 5638 5635 5631 5628 5624 5620 5616
5720 5717 5714 5711 5709 5706 5703 5701 5699 5696 5694 5693 5691 5689 5687 5685 5683 5681 5679 5678 5676 5674 5672 5670 5668 5666 5663 5661 5659 5656 5653 5650 5647 5645 5642 5638 5635 5632 5628 5624 5621 5617 5614